Weather History for Jamestown, NY

Change the Weather History Date:

Saturday, April 6, 2013

  Actual Average Record
Temperature  
Mean Temperature 34 °F -  
Max Temperature 48 °F 49 °F 75 °F (1988)
Min Temperature 19 °F 29 °F 16 °F (1975)
Degree Days  
Heating Degree Days 32    
Moisture  
Dew Point 14 °F    
Average Humidity 48    
Maximum Humidity 86    
Minimum Humidity 20    
Precipitation  
Precipitation 0.00 in - - ()
Sea Level Pressure  
Sea Level Pressure 30.15 in    
Wind  
Wind Speed 7 mph (SSE)    
Max Wind Speed 15 mph    
Max Gust Speed 20 mph    
Visibility 10 miles    
Events      
Averages and records for this station are not official NWS values.
T = Trace of Precipitation, MM = Missing Value Source: NWS Daily Summary

Daily Weather History Graph

Daily Weather History Graph

Search for Another Location

Airport:

Trip Planner

Search our weather history database for the weather conditions in past years. The results will help you decide how hot, cold, wet, or windy it might be!

Date:

Astronomy

Apr. 06, 2013 Rise Set
Actual Time 6:50 AM EDT 7:48 PM EDT
Civil Twilight 6:22 AM EDT 8:17 PM EDT
Nautical Twilight 5:48 AM EDT 8:51 PM EDT
Astronomical Twilight 5:13 AM EDT 9:26 PM EDT
Moon 4:37 AM EDT (4/6) 4:11 PM EDT (4/6)
Length of Visible Light 13h 54m
Length of Day
12h 57m
Waning Crescent, 15% of the Moon is Illuminated
Apr 6
Waning Crescent
Apr 10
New
Apr 18
First Quarter
Apr 25
Full
May 2
Last Quarter

Hourly Weather History & Observations

Time (EDT) Temp. Windchill Dew Point Humidity Pressure Visibility Wind Dir Wind Speed Gust Speed Precip Events Conditions
12:15 AM 26.6 °F 17.5 °F 17.6 °F 69% 30.14 in 10.0 mi NNW 9.2 mph - N/A   Clear
12:35 AM 26.6 °F 19.1 °F 17.6 °F 69% 30.14 in 10.0 mi NNW 6.9 mph - N/A   Clear
12:55 AM 26.6 °F 18.2 °F 17.6 °F 69% 30.14 in 10.0 mi NNW 8.1 mph - N/A   Clear
1:15 AM 26.6 °F 20.0 °F 17.6 °F 69% 30.15 in 10.0 mi NNW 5.8 mph - N/A   Clear
1:35 AM 26.6 °F 20.0 °F 17.6 °F 69% 30.15 in 10.0 mi NNW 5.8 mph - N/A   Clear
1:55 AM 26.6 °F 19.1 °F 15.8 °F 64% 30.16 in 10.0 mi NNW 6.9 mph - N/A   Clear
2:15 AM 26.6 °F 18.2 °F 15.8 °F 64% 30.16 in 10.0 mi NNW 8.1 mph - N/A   Clear
2:35 AM 24.8 °F 17.9 °F 17.6 °F 74% 30.16 in 10.0 mi North 5.8 mph - N/A   Clear
2:55 AM 24.8 °F 17.9 °F 17.6 °F 74% 30.16 in 10.0 mi North 5.8 mph - N/A   Clear
3:15 AM 24.8 °F 19.1 °F 17.6 °F 74% 30.16 in 10.0 mi North 4.6 mph - N/A   Clear
3:35 AM 23.0 °F 17.0 °F 17.6 °F 80% 30.16 in 10.0 mi North 4.6 mph - N/A   Clear
3:55 AM 23.0 °F - 17.6 °F 80% 30.17 in 10.0 mi Calm Calm - N/A   Clear
4:15 AM 23.0 °F 18.4 °F 17.6 °F 80% 30.17 in 10.0 mi North 3.5 mph - N/A   Clear
4:35 AM 23.0 °F 18.4 °F 17.6 °F 80% 30.17 in 10.0 mi NNW 3.5 mph - N/A   Scattered Clouds
4:55 AM 23.0 °F 18.4 °F 17.6 °F 80% 30.18 in 10.0 mi North 3.5 mph - N/A   Partly Cloudy
5:15 AM 23.0 °F 18.4 °F 17.6 °F 80% 30.18 in 10.0 mi North 3.5 mph - N/A   Clear
5:35 AM 23.0 °F 18.4 °F 17.6 °F 80% 30.18 in 10.0 mi North 3.5 mph - N/A   Clear
5:55 AM 23.0 °F - 17.6 °F 80% 30.19 in 10.0 mi Calm Calm - N/A   Clear
6:15 AM 21.2 °F - 17.6 °F 86% 30.20 in 10.0 mi Calm Calm - N/A   Clear
6:35 AM 23.0 °F - 17.6 °F 80% 30.21 in 10.0 mi Calm Calm - N/A   Clear
6:55 AM 21.2 °F - 17.6 °F 86% 30.22 in 10.0 mi Calm Calm - N/A   Clear
7:15 AM 21.2 °F - 17.6 °F 86% 30.22 in 10.0 mi Calm Calm - N/A   Clear
7:35 AM 21.2 °F - 17.6 °F 86% 30.22 in 10.0 mi Calm Calm - N/A   Clear
7:55 AM 23.0 °F 15.8 °F 17.6 °F 80% 30.22 in 10.0 mi East 5.8 mph - N/A   Clear
8:15 AM 19.4 °F 12.8 °F 15.8 °F 86% 30.23 in 10.0 mi East 4.6 mph - N/A   Clear
8:35 AM 24.8 °F 17.9 °F 15.8 °F 69% 30.24 in 10.0 mi East 5.8 mph - N/A   Clear
8:55 AM 26.6 °F 18.2 °F 15.8 °F 64% 30.24 in 10.0 mi East 8.1 mph - N/A   Clear
9:15 AM 26.6 °F 18.2 °F 15.8 °F 64% 30.25 in 10.0 mi ESE 8.1 mph - N/A   Clear
9:35 AM 26.6 °F 19.1 °F 15.8 °F 64% 30.25 in 10.0 mi East 6.9 mph - N/A   Clear
9:55 AM 28.4 °F 19.7 °F 15.8 °F 59% 30.25 in 10.0 mi SSE 9.2 mph - N/A   Clear
10:15 AM 30.2 °F 23.4 °F 15.8 °F 55% 30.25 in 10.0 mi SE 6.9 mph - N/A   Clear
10:35 AM 30.2 °F 21.9 °F 15.8 °F 55% 30.26 in 10.0 mi SE 9.2 mph - N/A   Clear
10:55 AM 33.8 °F 27.7 °F 10.4 °F 38% 30.25 in 10.0 mi ESE 6.9 mph - N/A   Clear
11:15 AM 33.8 °F 26.4 °F 12.2 °F 41% 30.24 in 10.0 mi ESE 9.2 mph - N/A   Clear
11:35 AM 35.6 °F 28.0 °F 12.2 °F 38% 30.24 in 10.0 mi SSE 10.4 mph - N/A   Clear
11:55 AM 35.6 °F 28.0 °F 12.2 °F 38% 30.24 in 10.0 mi South 10.4 mph - N/A   Clear
12:15 PM 37.4 °F 31.4 °F 14.0 °F 38% 30.23 in 10.0 mi SSE 8.1 mph - N/A   Clear
12:35 PM 37.4 °F 30.8 °F 14.0 °F 38% 30.23 in 10.0 mi South 9.2 mph 16.1 mph N/A   Clear
12:55 PM 39.2 °F 32.0 °F 14.0 °F 36% 30.22 in 10.0 mi SSE 11.5 mph 16.1 mph N/A   Clear
1:15 PM 39.2 °F 32.5 °F 12.2 °F 33% 30.22 in 10.0 mi SSE 10.4 mph - N/A   Clear
1:35 PM 41.0 °F 34.7 °F 12.2 °F 31% 30.20 in 10.0 mi SE 10.4 mph - N/A   Clear
1:55 PM 37.4 °F 30.3 °F 12.2 °F 36% 30.19 in 10.0 mi SE 10.4 mph - N/A   Clear
2:15 PM 42.8 °F 38.0 °F 12.2 °F 29% 30.19 in 10.0 mi South 8.1 mph - N/A   Clear
2:35 PM 41.0 °F 35.2 °F 14.0 °F 33% 30.17 in 10.0 mi South 9.2 mph - N/A   Clear
2:55 PM 42.8 °F 38.0 °F 12.2 °F 29% 30.16 in 10.0 mi SSE 8.1 mph - N/A   Clear
3:15 PM 44.6 °F 38.4 °F 10.4 °F 25% 30.15 in 10.0 mi SSE 12.7 mph - N/A   Clear
3:35 PM 46.4 °F 41.9 °F 10.4 °F 23% 30.14 in 10.0 mi South 9.2 mph - N/A   Clear
3:55 PM 46.4 °F 41.5 °F 10.4 °F 23% 30.14 in 10.0 mi SSE 10.4 mph - N/A   Partly Cloudy
4:15 PM 46.4 °F 42.4 °F 10.4 °F 23% 30.12 in 10.0 mi South 8.1 mph - N/A   Mostly Cloudy
4:35 PM 46.4 °F 41.1 °F 10.4 °F 23% 30.11 in 10.0 mi SSE 11.5 mph - N/A   Scattered Clouds
4:55 PM 46.4 °F 41.9 °F 8.6 °F 22% 30.11 in 10.0 mi South 9.2 mph - N/A   Mostly Cloudy
5:15 PM 48.2 °F - 10.4 °F 22% 30.11 in 10.0 mi SSE 10.4 mph - N/A   Mostly Cloudy
5:35 PM 48.2 °F - 10.4 °F 22% 30.11 in 10.0 mi South 9.2 mph - N/A   Overcast
5:55 PM 48.2 °F - 10.4 °F 22% 30.10 in 10.0 mi SSE 11.5 mph 16.1 mph N/A   Overcast
6:15 PM 48.2 °F - 10.4 °F 22% 30.09 in 10.0 mi SSE 11.5 mph 17.3 mph N/A   Overcast
6:35 PM 48.2 °F - 8.6 °F 20% 30.09 in 10.0 mi South 10.4 mph - N/A   Mostly Cloudy
6:55 PM 48.2 °F - 8.6 °F 20% 30.08 in 10.0 mi South 9.2 mph - N/A   Partly Cloudy
7:15 PM 44.6 °F 39.7 °F 10.4 °F 25% 30.08 in 10.0 mi South 9.2 mph - N/A   Mostly Cloudy
7:35 PM 44.6 °F 39.7 °F 10.4 °F 25% 30.08 in 10.0 mi South 9.2 mph - N/A   Overcast
7:55 PM 48.2 °F - 12.2 °F 24% 30.08 in 10.0 mi South 10.4 mph - N/A   Overcast
8:15 PM 46.4 °F 41.1 °F 12.2 °F 25% 30.07 in 10.0 mi South 11.5 mph - N/A   Overcast
8:35 PM 48.2 °F - 12.2 °F 24% 30.06 in 10.0 mi South 10.4 mph - N/A   Overcast
8:55 PM 46.4 °F 41.9 °F 12.2 °F 25% 30.05 in 10.0 mi South 9.2 mph - N/A   Mostly Cloudy
9:15 PM 46.4 °F 42.4 °F 12.2 °F 25% 30.05 in 10.0 mi South 8.1 mph - N/A   Partly Cloudy
9:35 PM 46.4 °F 41.1 °F 12.2 °F 25% 30.05 in 10.0 mi South 11.5 mph 16.1 mph N/A   Clear
9:55 PM 46.4 °F 41.9 °F 12.2 °F 25% 30.04 in 10.0 mi South 9.2 mph - N/A   Clear
10:15 PM 46.4 °F 40.1 °F 12.2 °F 25% 30.04 in 10.0 mi South 15.0 mph 18.4 mph N/A   Clear
10:35 PM 46.4 °F 40.4 °F 12.2 °F 25% 30.03 in 10.0 mi South 13.8 mph 19.6 mph N/A   Clear
10:55 PM 44.6 °F 38.4 °F 12.2 °F 27% 30.02 in 10.0 mi South 12.7 mph - N/A   Clear
11:15 PM 44.6 °F 38.1 °F 14.0 °F 29% 30.01 in 10.0 mi South 13.8 mph 19.6 mph N/A   Partly Cloudy
11:35 PM 44.6 °F 38.8 °F 14.0 °F 29% 30.01 in 10.0 mi South 11.5 mph 17.3 mph N/A   Mostly Cloudy
11:55 PM 44.6 °F 38.8 °F 14.0 °F 29% 30.00 in 10.0 mi South 11.5 mph 17.3 mph N/A   Mostly Cloudy